Location: Cedar Springs
(43.2230°N, 85.5510°W)
Time: 14:49:20
(UTC-05:00)

Cosmos 2278 Rocket - Visible Passes

Search period start: 02 December 2016 00:00
Search period end: 12 December 2016 00:00
Orbit: 841 x 845 km, 71.0° (Epoch: 02 December)

Date Brightness Start Highest point End Pass type
(mag) Time Alt. Az. Time Alt. Az. Time Alt. Az.
02 Dec 4.6 03:58:16 16° ESE 03:58:16 16° ESE 03:59:40 10° ESE visible
02 Dec 2.8 05:40:11 39° SW 05:40:11 39° SW 05:44:19 10° S visible
02 Dec 2.4 18:42:07 10° S 18:47:30 47° ESE 18:50:04 28° NE visible
02 Dec 3.8 20:26:55 10° WSW 20:31:46 29° NW 20:31:58 29° NW visible
03 Dec 3.4 05:27:05 28° SSW 05:27:05 28° SSW 05:29:50 10° S visible
03 Dec 2.5 18:27:39 10° S 18:32:58 45° ESE 18:36:35 20° NE visible
03 Dec 3.8 20:12:18 10° WSW 20:17:13 30° NW 20:18:28 27° NNW visible
04 Dec 4.1 05:14:01 17° S 05:14:01 17° S 05:15:21 10° S visible
04 Dec 2.6 18:13:10 10° S 18:18:27 43° ESE 18:23:01 14° NE visible
04 Dec 3.8 19:57:42 10° WSW 20:02:40 31° NW 20:04:53 23° NNW visible
05 Dec 2.7 17:58:42 10° S 18:03:56 41° ESE 18:09:12 10° NE visible
05 Dec 3.7 19:43:05 10° WSW 19:48:06 32° NW 19:51:13 19° N visible
06 Dec 2.7 17:44:13 10° S 17:49:26 39° ESE 17:54:39 10° NE visible
06 Dec 3.7 19:28:29 10° WSW 19:33:33 33° NW 19:37:29 15° N visible
07 Dec 2.8 17:29:46 10° S 17:34:55 38° ESE 17:40:05 10° NE visible
07 Dec 3.6 19:13:54 10° WSW 19:19:00 34° NW 19:23:40 12° N visible
08 Dec 3.6 18:59:17 10° WSW 19:04:27 36° NW 19:09:39 10° N visible
09 Dec 3.5 18:44:42 10° WSW 18:49:54 37° WNW 18:55:09 10° N visible
10 Dec 3.5 18:30:07 10° SW 18:35:21 38° WNW 18:40:39 10° NNE visible
11 Dec 3.4 18:15:32 10° SW 18:20:49 40° WNW 18:26:08 10° NNE visible
